Weather Roundup
Issued by NWS Corpus Christi, TX

Home | Current Version | Previous Version | Text Only | Print | Product List | Glossary On
Versions: 1 2 3 4 5 6 7 8 9 10 11 12 13 14 15 16 17 18 19 20 21 22 23 24 25 26 27 28 29 30 31 32 33 34 35 36 37 38 39 40 41 42 43 44 45 46 47 48 49 50
000
ASUS44 KCRP 221710
HRRCRP

SOUTH TEXAS REGIONAL WEATHER ROUNDUP
NATIONAL WEATHER SERVICE CORPUS CHRISTI TX
1200 PM CDT MON SEP 22 2014


TXZ229>244-221800-
...CORPUS CHRISTI AREA OBSERVATIONS...

CITY           SKY/WX    TMP DP  RH WIND       PRES   REMARKS
CORPUS CHRISTI PTSUNNY   87  74  64 NE15      30.07S HX  95
NAS CORPUS CHR PTSUNNY   86  76  71 NE17      30.06S HX  96
ROCKPORT       SUNNY     88  71  57 E12       30.07F HX  94
KINGSVILLE NAS CLOUDY    86  75  69 NE14G21   30.07S HX  95
ALICE          MOSUNNY   87  72  60 E13       30.08S HX  93
FALFURRIAS     MOSUNNY  N/A N/A N/A NE13G18   30.06F
$$

...VICTORIA AREA OBSERVATIONS...

CITY           SKY/WX    TMP DP  RH WIND       PRES   REMARKS
VICTORIA       SUNNY     90  72  55 NE9       30.09F HX  97
BEEVILLE       FAIR      89  65  45 NE9G17    30.09F HX  90
PLEASANTON     MOSUNNY   88  64  44 NE8       30.13S
SAN ANTONIO    PTSUNNY   88  65  46 NE10      30.14F HX  90
$$

...LAREDO AREA OBSERVATIONS...

CITY           SKY/WX    TMP DP  RH WIND       PRES   REMARKS
LAREDO         MOSUNNY   86  70  58 E14G20    30.14S HX  90
COTULLA        MOSUNNY   86  69  56 SE7       30.13S HX  90
DEL RIO        MOSUNNY   84  65  52 S10       30.16S
MCALLEN        LGT RAIN  84  73  69 E16G22    30.05S HX  90
HEBBRONVILLE     N/A     84  69  61 NE13      30.11F
$$

...OTHER TEXAS OBSERVATIONS...

CITY           SKY/WX    TMP DP  RH WIND       PRES   REMARKS
BROWNSVILLE    MOSUNNY   88  76  67 E14       30.02R HX  99
HOUSTON        MOSUNNY   88  72  58 VRB3      30.08S HX  94
COL. STATION   SUNNY     85  72  65 N10       30.12S HX  91
AUSTIN         PTSUNNY   87  68  52 N10       30.13S HX  90
WACO           MOSUNNY   84  69  60 NE10      30.16F
FORT WORTH     MOSUNNY   82  51  34 E12       30.20F
WICHITA FALLS  MOSUNNY   79  49  34 E15       30.25F
LUBBOCK        PTSUNNY   70  59  68 E13       30.31F
EL PASO        LGT RAIN  70  65  84 NE6       30.23S
$$

...MARINE OBSERVATIONS...

STATION/POSITION TIME  SKY/WX   TEMP    WIND        PRES    VSBY  WAVE   SWELL
                                AIR SEA DIR/SP/G                  HT/PER HT/PER
                 (UTC)          (F)     (DEG/KT/KT) (MB)    (MI)  (FT/S) (FT/S)
PORT ARANSAS     1700            82 84   30/ 15/ 16 1018.5S
BUOY 90 E PORT A 1700            83 85   40/ 14/ 16 1017.6F         4/ 6   2/ 7
BUOY 45 SE BAFFI 1700            84 84   60/ 16/ 21 1016.4R         5/ 7   2/ 8
BUOY 200 E PT IS 1700            83 85   80/  8/ 10 1016.2S         3/ 7   2/ 7
BUOY 15 E GALVES 1700            82 84   10/ 10/ 10 1017.6F         2/ 5   2/ 5
$$



USA.gov is the U.S. government's official web portal to all federal, state and local government web resources and services.